Location: Berlise
(49.6641°N, 4.1077°E)
Time: 02:01:48
(UTC+00:00)

ATLAS CENTAUR R/B - Pass Details

Date: 27 January 2021
Orbit: 471 x 674 km, 64.6° (Epoch: 24 February)

Event Time Altitude Azimuth Distance (km) Brightness Sun altitude
Exits shadow 04:32:03 30° 91° (E) 864 2.9 -27.5°
Drops below altitude 10° 04:34:33 10° 55° (NE) 1,644 4.5 -27.1°
Sets 04:36:48 0° 46° (NE) 2,536 5.4 -26.7°
